STARLINK-31388, 59565

Orbit data source: Space-Track

STARLINK-31388, 59565 is a payload satellite owned by SpaceX/Seattle (US) in LEO that was launched on Tue, 23 Apr 2024 UTC via an FALCON 9 launch vehicle from the Air Force Eastern Test Range (AFETR). Payload-class satellites include a variety of spacecraft equipped with specific instruments for various scientific and technological missions. These include communications satellites like Starlink; space stations such as the ISS; scientific satellites like the Hubble; Earth observation satellites from companies like Planet Labs, Umbra, and HawkEye 360; GPS; miniature CubeSats for education and research; and military/defense satellites.

Loading next visibility...
Identifier
59565, 2024-076B
Orbit
LEO
Last TLE update
13 hours ago
Origin
Manufacturer
SpaceX/Seattle
Mission
Operational spacecraft
Bus & Motor
STARLINK V2M, Unknown motor
Mass
730 kg wet, ~700 kg dry
Launch date (UTC)
2024-04-23 (1 year ago)
Launch vehicle
FALCON 9
Launch site
Air Force Eastern Test Range (AFETR)
Object type
Payload
Rocket body
Debris
Shape & HBR
Unknown
Radar Cross Section
Large (>1 m²)

Expand to show TLE details & history

TLE from 13 hours ago
0 STARLINK-31388
1 59565U 24076B   25128.75002320  .00002051  00000-0  84031-4 0  9994
2 59565  43.0002 291.3688 0001120 267.9961  92.0763 15.27581075 59868
Epoch: 2025-05-08T18:00Z
Definitive object data (Epoch: 2025-05-08T18:00:02.004Z)
Latitude
0.00002°
Longitude
154.54443°
Altitude
482.849 km
Speed
7.626 km/s
True Right ascension
19h 25m 28s
True Declination
0° 00' 00"
Sunlit
Object was in full shadow at TLE epoch
Visualization TLE readout
Latitude
38.88074°
Longitude
-87.83442°
Altitude
485.983 km
Speed
7.627 km/s
Apparent Right ascension
03h 14m 00s
Apparent Declination
1° 12' 31"
Sunlit
Object is in daylight
Visualization observer readout
Local Sidereal Time
15:11:52
Azimuth
359.188° N
Elevation
-48.872°
Doppler factor
1
Orbital elements
Apogee altitude
485.76 km
Perigee altitude
484.222 km
Semi-major axis
6,863.128 km
Eccentricity
0.000112
Inclination
43.0002°
RAAN
291.3688°
Arg. of periapsis
267.9961°
True anomaly
92.08913°
Mean anomaly
92.0763°
Eccentric anomaly
92.08271°
Mean motion
3.81733 °/min
BSTAR
0.000084031
Orbital period
94.31 mins
Loading maneuver chart data...
Loading SW <> Apogee altitude chart data...
Loading historical data...
Loading historical data...
Loading historical data...
Loading historical data...
Loading historical data...
Loading historical data...
Loading historical data...

STARLINK-31388 Visibility forecast

Observer location: undefined°, undefined°

Span
Click to sort rows by Start time (UTC) header in descending order
Start Az.
Max El. time (UTC)
Max El. Az.
Max El.
End time (UTC)
End Az.
5 mins2025-05-09 14:38:56.023Z232.244° WSW2025-05-09 14:40:56.023Z163.567° S42.067°2025-05-09 14:43:56.023Z76.977° E
5 mins2025-05-09 16:17:56.023Z283.767° WNW2025-05-09 16:19:56.023Z346.848° N39.081°2025-05-09 16:22:56.023Z69.604° E
6 mins2025-05-09 17:56:56.023Z294.052° NW2025-05-09 17:58:56.023Z340.871° N41.241°2025-05-09 18:02:56.023Z94.768° ESE
5 mins2025-05-09 19:35:56.023Z268.796° W2025-05-09 19:37:56.023Z216.932° SW32.71°2025-05-09 19:40:56.023Z142.57° SSE
|